Location: *
(60.1759°S, 155.0663°W)
Time: 16:09:20
(UTC+00:00)

Cosmos 158 Rocket - Pass Details

Date: 17 September 2019
Orbit: 698 x 794 km, 74.0° (Epoch: 21 October)

Event Time Altitude Azimuth Distance (km) Brightness Sun altitude
Rises 14:05:25 0° 214° (SSW) 3,137 7.1 -17.4°
Reaches altitude 10° 14:07:47 10° 217° (SW) 2,208 6.3 -17.2°
Maximum altitude 14:12:39 57° 294° (WNW) 842 3.8 -16.6°
Drops below altitude 10° 14:17:29 10° 12° (NNE) 2,190 6.2 -16.1°
Sets 14:19:50 0° 15° (NNE) 3,109 7.1 -15.8°
